Time,TemperatureF,DewpointF,PressureIn,WindDirection,WindDirectionDegrees,WindSpeedMPH,WindSpeedGustMPH,Humidity,HourlyPrecipIn,Conditions,Clouds,dailyrainin,SoftwareType,DateUTC
2013-05-25 00:02:00,45.1,37.9,30.38,ESE,106,0.0,1.0,76,0.00,,,0.01,meteohub,2013-05-25 05:02:00,
2013-05-25 00:07:00,45.0,38.1,30.37,ESE,107,0.0,1.0,77,0.00,,,0.00,meteohub,2013-05-25 05:07:00,
2013-05-25 00:12:00,44.6,37.6,30.37,ESE,107,0.0,1.0,76,0.00,,,0.00,meteohub,2013-05-25 05:12:00,
2013-05-25 00:17:00,44.8,37.0,30.37,ESE,106,0.0,1.0,74,0.00,,,0.00,meteohub,2013-05-25 05:17:00,
2013-05-25 00:22:00,44.8,37.4,30.37,ESE,107,1.0,2.0,75,0.00,,,0.00,meteohub,2013-05-25 05:22:00,
2013-05-25 00:27:00,44.4,37.0,30.36,ESE,106,2.0,3.0,75,0.00,,,0.00,meteohub,2013-05-25 05:27:00,
2013-05-25 00:32:00,44.2,36.9,30.36,ESE,107,0.0,3.0,75,0.00,,,0.00,meteohub,2013-05-25 05:32:00,
2013-05-25 00:37:00,44.2,36.9,30.36,ESE,106,0.0,3.0,75,0.00,,,0.00,meteohub,2013-05-25 05:37:00,
2013-05-25 00:42:00,44.2,36.5,30.35,ESE,107,0.0,3.0,74,0.00,,,0.00,meteohub,2013-05-25 05:42:00,
2013-05-25 00:47:00,44.8,36.3,30.36,ESE,106,0.0,1.0,72,0.00,,,0.00,meteohub,2013-05-25 05:47:00,
2013-05-25 00:52:00,45.0,35.8,30.35,ESE,106,0.0,0.0,70,0.00,,,0.00,meteohub,2013-05-25 05:52:00,
2013-05-25 00:57:00,45.1,36.3,30.35,ESE,107,0.0,0.0,71,0.00,,,0.00,meteohub,2013-05-25 05:57:00,
2013-05-25 01:02:00,45.3,37.2,30.35,ESE,106,0.0,0.0,73,0.00,,,0.00,meteohub,2013-05-25 06:02:00,
2013-05-25 01:07:00,45.5,36.7,30.35,ESE,107,1.0,2.0,71,0.00,,,0.00,meteohub,2013-05-25 06:07:00,
2013-05-25 01:12:00,45.9,36.7,30.35,ESE,107,1.0,3.0,70,0.00,,,0.00,meteohub,2013-05-25 06:12:00,
2013-05-25 01:17:00,46.2,36.3,30.35,ESE,106,0.0,3.0,68,0.00,,,0.00,meteohub,2013-05-25 06:17:00,
2013-05-25 01:22:00,46.8,35.2,30.35,ESE,107,2.0,5.0,64,0.00,,,0.00,meteohub,2013-05-25 06:22:00,
2013-05-25 01:27:00,47.1,34.7,30.34,ESE,106,0.0,5.0,62,0.00,,,0.00,meteohub,2013-05-25 06:27:00,
2013-05-25 01:32:00,47.3,34.9,30.34,ESE,107,0.0,5.0,62,0.00,,,0.00,meteohub,2013-05-25 06:32:00,
2013-05-25 01:37:00,47.5,34.3,30.34,ESE,106,0.0,5.0,60,0.00,,,0.00,meteohub,2013-05-25 06:37:00,
2013-05-25 01:42:00,47.5,34.7,30.35,ESE,107,0.0,5.0,61,0.00,,,0.00,meteohub,2013-05-25 06:42:00,
2013-05-25 01:47:00,47.5,35.1,30.34,ESE,107,0.0,2.0,62,0.00,,,0.00,meteohub,2013-05-25 06:47:00,
2013-05-25 01:52:00,47.5,34.7,30.34,ESE,107,1.0,2.0,61,0.00,,,0.00,meteohub,2013-05-25 06:52:00,
2013-05-25 01:57:00,47.7,34.5,30.34,ESE,107,1.0,3.0,60,0.00,,,0.00,meteohub,2013-05-25 06:57:00,
2013-05-25 02:02:00,47.7,34.0,30.34,ESE,107,0.0,3.0,59,0.00,,,0.00,meteohub,2013-05-25 07:02:00,
2013-05-25 02:07:00,47.8,32.9,30.34,ESE,107,0.0,3.0,56,0.00,,,0.00,meteohub,2013-05-25 07:07:00,
2013-05-25 02:12:00,47.8,32.9,30.35,ESE,107,0.0,2.0,56,0.00,,,0.00,meteohub,2013-05-25 07:12:00,
2013-05-25 02:17:00,48.0,33.1,30.35,ESE,107,1.0,3.0,56,0.00,,,0.00,meteohub,2013-05-25 07:17:00,
2013-05-25 02:22:00,48.0,33.1,30.35,ESE,107,0.0,3.0,56,0.00,,,0.00,meteohub,2013-05-25 07:22:00,
2013-05-25 02:27:00,47.8,33.3,30.35,ESE,107,0.0,3.0,57,0.00,,,0.00,meteohub,2013-05-25 07:27:00,
2013-05-25 02:32:00,48.2,33.3,30.35,ESE,107,1.0,2.0,56,0.00,,,0.00,meteohub,2013-05-25 07:32:00,
2013-05-25 02:37:00,48.0,36.0,30.36,ESE,107,1.0,2.0,63,0.00,,,0.00,meteohub,2013-05-25 07:37:00,
2013-05-25 02:42:00,47.7,35.2,30.36,ESE,106,0.0,2.0,62,0.00,,,0.00,meteohub,2013-05-25 07:42:00,
2013-05-25 02:47:00,47.7,35.2,30.36,ESE,106,0.0,2.0,62,0.00,,,0.00,meteohub,2013-05-25 07:47:00,
2013-05-25 02:52:00,47.5,37.0,30.36,ESE,106,0.0,2.0,67,0.00,,,0.00,meteohub,2013-05-25 07:52:00,
2013-05-25 02:57:00,47.3,36.9,30.36,ESE,107,0.0,2.0,67,0.00,,,0.00,meteohub,2013-05-25 07:57:00,
2013-05-25 03:02:00,47.1,36.3,30.37,ESE,107,0.0,2.0,66,0.00,,,0.00,meteohub,2013-05-25 08:02:00,
2013-05-25 03:07:00,46.9,35.8,30.37,ESE,107,0.0,1.0,65,0.00,,,0.00,meteohub,2013-05-25 08:07:00,
2013-05-25 03:12:00,46.9,36.5,30.37,ESE,107,0.0,0.0,67,0.00,,,0.00,meteohub,2013-05-25 08:12:00,
2013-05-25 03:17:00,46.9,38.1,30.37,ESE,106,0.0,1.0,71,0.00,,,0.00,meteohub,2013-05-25 08:17:00,
2013-05-25 03:22:00,46.9,38.3,30.37,ESE,106,0.0,1.0,72,0.00,,,0.00,meteohub,2013-05-25 08:22:00,
2013-05-25 03:27:00,46.8,37.9,30.37,ESE,107,0.0,1.0,71,0.00,,,0.00,meteohub,2013-05-25 08:27:00,
2013-05-25 03:32:00,46.6,37.0,30.37,ESE,107,0.0,1.0,69,0.00,,,0.00,meteohub,2013-05-25 08:32:00,
2013-05-25 03:37:00,46.6,36.5,30.37,ESE,107,1.0,1.0,68,0.00,,,0.00,meteohub,2013-05-25 08:37:00,
2013-05-25 03:42:00,46.8,37.2,30.37,ESE,106,0.0,2.0,69,0.00,,,0.00,meteohub,2013-05-25 08:42:00,
2013-05-25 03:47:00,46.9,37.6,30.37,ESE,107,0.0,3.0,70,0.00,,,0.00,meteohub,2013-05-25 08:47:00,
2013-05-25 03:52:00,46.8,38.5,30.37,ESE,107,0.0,3.0,73,0.00,,,0.00,meteohub,2013-05-25 08:52:00,
2013-05-25 03:57:00,46.6,37.8,30.37,ESE,106,0.0,3.0,71,0.00,,,0.00,meteohub,2013-05-25 08:57:00,
2013-05-25 04:02:00,46.6,38.7,30.36,ESE,106,0.0,1.0,74,0.00,,,0.00,meteohub,2013-05-25 09:02:00,
2013-05-25 04:07:00,46.4,38.5,30.36,ESE,107,0.0,1.0,74,0.00,,,0.00,meteohub,2013-05-25 09:07:00,
2013-05-25 04:12:00,46.2,37.8,30.36,ESE,106,1.0,1.0,72,0.00,,,0.00,meteohub,2013-05-25 09:12:00,
2013-05-25 04:22:00,46.9,35.8,30.36,ESE,106,0.0,2.0,65,0.00,,,0.00,meteohub,2013-05-25 09:22:00,
2013-05-25 04:27:00,47.3,36.1,30.37,ESE,107,0.0,2.0,65,0.00,,,0.00,meteohub,2013-05-25 09:27:00,
2013-05-25 04:32:00,47.5,36.7,30.37,ESE,107,0.0,3.0,66,0.00,,,0.00,meteohub,2013-05-25 09:32:00,
2013-05-25 04:37:00,47.5,37.0,30.38,ESE,107,0.0,3.0,67,0.00,,,0.00,meteohub,2013-05-25 09:37:00,
2013-05-25 04:43:00,47.5,36.7,30.37,ESE,107,1.0,3.0,66,0.00,,,0.00,meteohub,2013-05-25 09:43:00,
2013-05-25 04:48:00,47.5,37.0,30.37,ESE,107,1.0,3.0,67,0.00,,,0.00,meteohub,2013-05-25 09:48:00,
2013-05-25 04:53:00,47.3,36.5,30.37,ESE,107,0.0,3.0,66,0.00,,,0.00,meteohub,2013-05-25 09:53:00,
2013-05-25 04:58:00,47.3,36.9,30.36,ESE,107,0.0,3.0,67,0.00,,,0.00,meteohub,2013-05-25 09:58:00,
2013-05-25 05:03:00,47.5,36.7,30.35,ESE,107,2.0,2.0,66,0.00,,,0.00,meteohub,2013-05-25 10:03:00,
2013-05-25 05:08:00,47.5,36.7,30.36,ESE,107,0.0,2.0,66,0.00,,,0.00,meteohub,2013-05-25 10:08:00,
2013-05-25 05:14:00,47.5,37.4,30.36,ESE,107,0.0,2.0,68,0.00,,,0.00,meteohub,2013-05-25 10:14:00,
2013-05-25 05:19:00,47.5,36.3,30.36,ESE,107,0.0,2.0,65,0.00,,,0.00,meteohub,2013-05-25 10:19:00,
2013-05-25 05:24:00,47.5,37.0,30.36,ESE,107,0.0,1.0,67,0.00,,,0.00,meteohub,2013-05-25 10:24:00,
2013-05-25 05:29:00,47.7,38.3,30.36,ESE,106,2.0,2.0,70,0.00,,,0.00,meteohub,2013-05-25 10:29:00,
2013-05-25 05:34:00,47.7,36.9,30.36,ESE,106,3.0,3.0,66,0.00,,,0.00,meteohub,2013-05-25 10:34:00,
2013-05-25 05:39:00,48.0,37.2,30.36,ESE,107,2.0,2.0,66,0.00,,,0.00,meteohub,2013-05-25 10:39:00,
2013-05-25 05:45:00,48.4,37.6,30.37,ESE,107,0.0,3.0,66,0.00,,,0.00,meteohub,2013-05-25 10:45:00,
2013-05-25 05:50:00,48.4,37.6,30.37,ESE,107,0.0,3.0,66,0.00,,,0.00,meteohub,2013-05-25 10:50:00,
2013-05-25 05:55:00,48.6,36.9,30.38,ESE,107,0.0,3.0,64,0.00,,,0.00,meteohub,2013-05-25 10:55:00,
2013-05-25 06:00:00,48.7,37.6,30.38,ESE,107,0.0,3.0,65,0.00,,,0.00,meteohub,2013-05-25 11:00:00,
2013-05-25 06:05:00,49.1,37.8,30.39,ESE,107,4.0,4.0,65,0.00,,,0.00,meteohub,2013-05-25 11:05:00,
2013-05-25 06:10:00,49.3,37.2,30.39,ESE,107,3.0,7.0,63,0.00,,,0.00,meteohub,2013-05-25 11:10:00,
2013-05-25 06:16:00,49.3,36.9,30.39,ESE,107,0.0,7.0,62,0.00,,,0.00,meteohub,2013-05-25 11:16:00,
2013-05-25 06:21:00,49.1,36.7,30.39,ESE,107,2.0,7.0,62,0.00,,,0.00,meteohub,2013-05-25 11:21:00,
2013-05-25 06:26:00,48.9,37.8,30.39,ESE,107,0.0,5.0,65,0.00,,,0.00,meteohub,2013-05-25 11:26:00,
2013-05-25 06:31:00,48.9,37.2,30.40,ESE,106,1.0,4.0,64,0.00,,,0.00,meteohub,2013-05-25 11:31:00,
2013-05-25 06:36:00,48.7,37.6,30.40,ESE,106,0.0,4.0,65,0.00,,,0.00,meteohub,2013-05-25 11:36:00,
2013-05-25 06:41:00,48.9,37.2,30.40,ESE,103,2.0,3.0,64,0.00,,,0.00,meteohub,2013-05-25 11:41:00,
2013-05-25 06:47:00,48.7,37.0,30.40,East,101,0.0,3.0,64,0.00,,,0.00,meteohub,2013-05-25 11:47:00,
2013-05-25 06:52:00,48.9,38.1,30.40,East,101,5.0,5.0,66,0.00,,,0.00,meteohub,2013-05-25 11:52:00,
2013-05-25 06:57:00,48.9,38.5,30.39,East,101,6.0,7.0,67,0.00,,,0.00,meteohub,2013-05-25 11:57:00,
2013-05-25 07:02:00,49.5,38.7,30.40,East,97,7.0,7.0,66,0.00,,,0.00,meteohub,2013-05-25 12:02:00,
2013-05-25 07:07:00,49.8,38.8,30.40,East,92,6.0,8.0,66,0.00,,,0.00,meteohub,2013-05-25 12:07:00,
2013-05-25 07:12:00,50.4,39.0,30.40,East,92,3.0,8.0,65,0.00,,,0.00,meteohub,2013-05-25 12:12:00,
2013-05-25 07:17:00,50.5,38.5,30.41,ENE,73,3.0,8.0,63,0.00,,,0.00,meteohub,2013-05-25 12:17:00,
2013-05-25 07:22:00,50.5,38.8,30.41,SE,138,5.0,8.0,64,0.00,,,0.00,meteohub,2013-05-25 12:22:00,
2013-05-25 07:27:00,50.5,38.5,30.41,SE,137,2.0,9.0,63,0.00,,,0.00,meteohub,2013-05-25 12:27:00,
2013-05-25 07:32:00,50.7,38.7,30.41,SE,137,4.0,9.0,63,0.00,,,0.00,meteohub,2013-05-25 12:32:00,
2013-05-25 07:37:00,51.1,38.8,30.41,SE,134,3.0,9.0,63,0.00,,,0.00,meteohub,2013-05-25 12:37:00,
2013-05-25 07:42:00,51.3,39.0,30.42,SE,134,0.0,5.0,63,0.00,,,0.00,meteohub,2013-05-25 12:42:00,
2013-05-25 07:47:00,51.6,39.9,30.42,SE,134,1.0,5.0,64,0.00,,,0.00,meteohub,2013-05-25 12:47:00,
2013-05-25 07:52:00,52.0,39.4,30.41,SE,134,3.0,5.0,62,0.00,,,0.00,meteohub,2013-05-25 12:52:00,
2013-05-25 07:57:00,52.2,39.6,30.41,ESE,122,8.0,8.0,62,0.00,,,0.00,meteohub,2013-05-25 12:57:00,
2013-05-25 08:02:00,52.2,39.6,30.40,ESE,115,9.0,9.0,62,0.00,,,0.00,meteohub,2013-05-25 13:02:00,
2013-05-25 08:07:00,51.6,38.1,30.40,ESE,109,7.0,10.0,60,0.00,,,0.00,meteohub,2013-05-25 13:07:00,
2013-05-25 08:12:00,52.0,39.4,30.40,ESE,105,4.0,10.0,62,0.00,,,0.00,meteohub,2013-05-25 13:12:00,
2013-05-25 08:17:00,52.0,39.7,30.40,ESE,116,8.0,10.0,63,0.00,,,0.00,meteohub,2013-05-25 13:17:00,
2013-05-25 08:22:00,51.8,40.1,30.40,ESE,118,7.0,9.0,64,0.00,,,0.00,meteohub,2013-05-25 13:22:00,
2013-05-25 08:27:00,51.8,40.5,30.40,ESE,118,4.0,9.0,65,0.00,,,0.00,meteohub,2013-05-25 13:27:00,
2013-05-25 08:32:00,52.0,39.4,30.40,ESE,118,2.0,9.0,62,0.00,,,0.00,meteohub,2013-05-25 13:32:00,
2013-05-25 08:37:00,52.0,39.7,30.40,ESE,118,5.0,8.0,63,0.00,,,0.00,meteohub,2013-05-25 13:37:00,
2013-05-25 08:42:00,52.0,40.1,30.41,ESE,118,2.0,8.0,64,0.00,,,0.00,meteohub,2013-05-25 13:42:00,
2013-05-25 08:47:00,52.2,39.9,30.41,ESE,118,3.0,8.0,63,0.00,,,0.00,meteohub,2013-05-25 13:47:00,
2013-05-25 08:52:00,52.3,40.1,30.41,ESE,118,3.0,8.0,63,0.00,,,0.00,meteohub,2013-05-25 13:52:00,
2013-05-25 08:57:00,52.5,40.3,30.42,ESE,118,4.0,7.0,63,0.00,,,0.00,meteohub,2013-05-25 13:57:00,
2013-05-25 09:02:00,52.9,40.6,30.41,ESE,118,4.0,7.0,63,0.00,,,0.00,meteohub,2013-05-25 14:02:00,
2013-05-25 09:07:00,53.1,40.8,30.41,ESE,118,7.0,7.0,63,0.00,,,0.00,meteohub,2013-05-25 14:07:00,
2013-05-25 09:12:00,53.2,40.1,30.41,ESE,117,4.0,8.0,61,0.00,,,0.00,meteohub,2013-05-25 14:12:00,
2013-05-25 09:17:00,53.6,40.1,30.41,SE,129,6.0,9.0,60,0.00,,,0.00,meteohub,2013-05-25 14:17:00,
2013-05-25 09:22:00,53.6,41.4,30.42,SE,129,4.0,9.0,63,0.00,,,0.00,meteohub,2013-05-25 14:22:00,
2013-05-25 09:27:00,54.0,41.2,30.41,SE,129,6.0,9.0,62,0.00,,,0.00,meteohub,2013-05-25 14:27:00,
2013-05-25 09:32:00,54.0,40.5,30.41,SE,129,4.0,8.0,60,0.00,,,0.00,meteohub,2013-05-25 14:32:00,
2013-05-25 09:37:00,54.0,39.9,30.41,SE,129,6.0,8.0,59,0.00,,,0.00,meteohub,2013-05-25 14:37:00,
2013-05-25 09:42:00,54.1,40.6,30.41,SE,129,4.0,7.0,60,0.00,,,0.00,meteohub,2013-05-25 14:42:00,
2013-05-25 09:47:00,54.1,39.7,30.41,SE,125,6.0,8.0,58,0.00,,,0.00,meteohub,2013-05-25 14:47:00,
2013-05-25 09:52:00,54.3,40.3,30.41,SE,124,6.0,8.0,59,0.00,,,0.00,meteohub,2013-05-25 14:52:00,
2013-05-25 09:57:00,54.7,40.6,30.41,SE,129,7.0,9.0,59,0.00,,,0.00,meteohub,2013-05-25 14:57:00,
2013-05-25 10:02:00,54.9,40.3,30.40,SE,128,5.0,9.0,58,0.00,,,0.00,meteohub,2013-05-25 15:02:00,
2013-05-25 10:07:00,54.9,41.7,30.40,SE,134,6.0,9.0,61,0.00,,,0.00,meteohub,2013-05-25 15:07:00,
2013-05-25 10:12:00,54.9,41.2,30.41,SE,134,3.0,10.0,60,0.00,,,0.00,meteohub,2013-05-25 15:12:00,
2013-05-25 10:17:00,55.2,41.2,30.41,ESE,107,5.0,10.0,59,0.00,,,0.00,meteohub,2013-05-25 15:17:00,
2013-05-25 10:22:00,55.4,39.6,30.41,East,93,6.0,10.0,55,0.00,,,0.00,meteohub,2013-05-25 15:22:00,
2013-05-25 10:27:00,55.6,40.6,30.41,ESE,112,10.0,11.0,57,0.00,,,0.00,meteohub,2013-05-25 15:27:00,
2013-05-25 10:32:00,55.6,40.1,30.41,ESE,116,4.0,11.0,56,0.00,,,0.00,meteohub,2013-05-25 15:32:00,
2013-05-25 10:37:00,55.6,41.0,30.41,ESE,117,5.0,11.0,58,0.00,,,0.00,meteohub,2013-05-25 15:37:00,
2013-05-25 10:42:00,56.1,41.5,30.41,ESE,117,4.0,11.0,58,0.00,,,0.00,meteohub,2013-05-25 15:42:00,
2013-05-25 10:47:00,56.7,39.7,30.40,SE,128,6.0,11.0,53,0.00,,,0.00,meteohub,2013-05-25 15:47:00,
2013-05-25 10:52:00,56.7,39.7,30.40,East,92,8.0,13.0,53,0.00,,,0.00,meteohub,2013-05-25 15:52:00,
2013-05-25 10:57:00,56.7,40.3,30.40,East,91,7.0,13.0,54,0.00,,,0.00,meteohub,2013-05-25 15:57:00,
2013-05-25 11:02:00,56.8,40.8,30.40,East,92,2.0,13.0,55,0.00,,,0.00,meteohub,2013-05-25 16:02:00,
2013-05-25 11:07:00,57.4,41.9,30.40,ESE,103,4.0,12.0,56,0.00,,,0.00,meteohub,2013-05-25 16:07:00,
2013-05-25 11:12:00,57.7,40.6,30.40,ESE,121,10.0,12.0,53,0.00,,,0.00,meteohub,2013-05-25 16:12:00,
2013-05-25 11:17:00,57.6,39.6,30.39,East,100,7.0,14.0,51,0.00,,,0.00,meteohub,2013-05-25 16:17:00,
2013-05-25 11:22:00,57.9,41.4,30.39,East,86,9.0,14.0,54,0.00,,,0.00,meteohub,2013-05-25 16:22:00,
2013-05-25 11:27:00,58.6,42.4,30.39,East,93,10.0,14.0,55,0.00,,,0.00,meteohub,2013-05-25 16:27:00,
2013-05-25 11:32:00,58.5,41.4,30.39,ENE,73,8.0,16.0,53,0.00,,,0.00,meteohub,2013-05-25 16:32:00,
2013-05-25 11:37:00,58.5,40.8,30.38,ENE,69,9.0,16.0,52,0.00,,,0.00,meteohub,2013-05-25 16:37:00,
2013-05-25 11:42:00,58.5,40.8,30.38,East,93,8.0,16.0,52,0.00,,,0.00,meteohub,2013-05-25 16:42:00,
2013-05-25 11:47:00,59.0,41.9,30.38,East,100,9.0,15.0,53,0.00,,,0.00,meteohub,2013-05-25 16:47:00,
2013-05-25 11:52:00,59.5,39.4,30.38,ESE,115,11.0,14.0,47,0.00,,,0.00,meteohub,2013-05-25 16:52:00,
2013-05-25 11:57:00,59.4,39.2,30.38,East,80,11.0,14.0,47,0.00,,,0.00,meteohub,2013-05-25 16:57:00,
2013-05-25 12:02:00,59.5,39.4,30.38,East,88,7.0,16.0,47,0.00,,,0.00,meteohub,2013-05-25 17:02:00,
2013-05-25 12:07:00,59.2,40.1,30.38,East,92,11.0,16.0,49,0.00,,,0.00,meteohub,2013-05-25 17:07:00,
2013-05-25 12:12:00,59.5,40.3,30.38,East,82,11.0,15.0,49,0.00,,,0.00,meteohub,2013-05-25 17:12:00,
2013-05-25 12:17:00,59.7,39.4,30.38,East,84,8.0,15.0,47,0.00,,,0.00,meteohub,2013-05-25 17:17:00,
2013-05-25 12:22:00,59.9,39.0,30.38,East,86,9.0,15.0,46,0.00,,,0.00,meteohub,2013-05-25 17:22:00,
2013-05-25 12:27:00,60.1,40.3,30.38,East,96,7.0,15.0,48,0.00,,,0.00,meteohub,2013-05-25 17:27:00,
2013-05-25 12:32:00,60.1,41.9,30.38,East,100,7.0,15.0,51,0.00,,,0.00,meteohub,2013-05-25 17:32:00,
2013-05-25 12:37:00,60.3,40.5,30.38,ESE,107,8.0,12.0,48,0.00,,,0.00,meteohub,2013-05-25 17:37:00,
2013-05-25 12:42:00,60.1,40.3,30.38,East,90,6.0,14.0,48,0.00,,,0.00,meteohub,2013-05-25 17:42:00,
2013-05-25 12:47:00,60.1,40.8,30.37,East,96,8.0,14.0,49,0.00,,,0.00,meteohub,2013-05-25 17:47:00,
2013-05-25 12:52:00,60.6,43.3,30.37,ESE,117,7.0,14.0,53,0.00,,,0.00,meteohub,2013-05-25 17:52:00,
2013-05-25 12:57:00,61.2,42.4,30.37,East,96,7.0,14.0,50,0.00,,,0.00,meteohub,2013-05-25 17:57:00,
2013-05-25 13:02:00,61.5,41.7,30.36,SE,132,11.0,14.0,48,0.00,,,0.00,meteohub,2013-05-25 18:02:00,
2013-05-25 13:07:00,61.0,40.6,30.36,SE,135,8.0,14.0,47,0.00,,,0.00,meteohub,2013-05-25 18:07:00,
2013-05-25 13:12:00,61.0,41.7,30.36,ESE,119,8.0,14.0,49,0.00,,,0.00,meteohub,2013-05-25 18:12:00,
2013-05-25 13:17:00,60.4,40.1,30.36,ESE,102,5.0,14.0,47,0.00,,,0.00,meteohub,2013-05-25 18:17:00,
2013-05-25 13:22:00,60.4,41.2,30.35,East,101,7.0,14.0,49,0.00,,,0.00,meteohub,2013-05-25 18:22:00,
2013-05-25 13:27:00,60.4,41.2,30.35,ESE,112,5.0,13.0,49,0.00,,,0.00,meteohub,2013-05-25 18:27:00,
2013-05-25 13:32:00,60.6,40.8,30.35,ESE,102,5.0,13.0,48,0.00,,,0.00,meteohub,2013-05-25 18:32:00,
2013-05-25 13:37:00,60.6,41.4,30.35,East,92,6.0,13.0,49,0.00,,,0.00,meteohub,2013-05-25 18:37:00,
2013-05-25 13:42:00,61.2,41.9,30.35,ESE,112,5.0,11.0,49,0.00,,,0.00,meteohub,2013-05-25 18:42:00,
2013-05-25 13:47:00,61.0,41.2,30.35,ESE,103,7.0,13.0,48,0.00,,,0.00,meteohub,2013-05-25 18:47:00,
2013-05-25 13:52:00,61.2,41.4,30.35,ESE,103,10.0,13.0,48,0.00,,,0.00,meteohub,2013-05-25 18:52:00,
2013-05-25 13:57:00,61.3,41.0,30.35,ENE,68,7.0,13.0,47,0.00,,,0.00,meteohub,2013-05-25 18:57:00,
2013-05-25 14:02:00,61.2,41.4,30.34,East,97,8.0,13.0,48,0.00,,,0.00,meteohub,2013-05-25 19:02:00,
2013-05-25 14:07:00,61.3,43.0,30.34,East,87,9.0,11.0,51,0.00,,,0.00,meteohub,2013-05-25 19:07:00,
2013-05-25 14:12:00,61.9,43.5,30.34,ESE,109,9.0,14.0,51,0.00,,,0.00,meteohub,2013-05-25 19:12:00,
2013-05-25 14:17:00,61.9,41.4,30.33,ESE,111,7.0,14.0,47,0.00,,,0.00,meteohub,2013-05-25 19:17:00,
2013-05-25 14:22:00,61.5,41.7,30.33,East,87,7.0,14.0,48,0.00,,,0.00,meteohub,2013-05-25 19:22:00,
2013-05-25 14:27:00,61.5,41.7,30.34,ENE,68,13.0,14.0,48,0.00,,,0.00,meteohub,2013-05-25 19:27:00,
2013-05-25 14:32:00,61.5,41.2,30.34,East,101,7.0,14.0,47,0.00,,,0.00,meteohub,2013-05-25 19:32:00,
2013-05-25 14:37:00,61.7,42.3,30.34,SE,130,8.0,14.0,49,0.00,,,0.00,meteohub,2013-05-25 19:37:00,
2013-05-25 14:42:00,61.9,41.4,30.34,SE,124,6.0,13.0,47,0.00,,,0.00,meteohub,2013-05-25 19:42:00,
2013-05-25 14:47:00,62.1,42.1,30.34,SE,139,6.0,13.0,48,0.00,,,0.00,meteohub,2013-05-25 19:47:00,
2013-05-25 14:52:00,62.1,41.0,30.35,SE,145,7.0,13.0,46,0.00,,,0.00,meteohub,2013-05-25 19:52:00,
2013-05-25 14:57:00,62.1,41.0,30.35,ESE,108,8.0,14.0,46,0.00,,,0.00,meteohub,2013-05-25 19:57:00,
2013-05-25 15:02:00,62.1,41.5,30.35,SE,146,9.0,14.0,47,0.00,,,0.00,meteohub,2013-05-25 20:02:00,
2013-05-25 15:07:00,62.2,41.7,30.34,ESE,115,5.0,14.0,47,0.00,,,0.00,meteohub,2013-05-25 20:07:00,
2013-05-25 15:12:00,61.9,40.8,30.35,SSE,149,7.0,13.0,46,0.00,,,0.00,meteohub,2013-05-25 20:12:00,
2013-05-25 15:17:00,61.3,40.5,30.35,SE,130,6.0,12.0,46,0.00,,,0.00,meteohub,2013-05-25 20:17:00,
2013-05-25 15:22:00,61.3,39.2,30.35,SE,146,8.0,13.0,44,0.00,,,0.00,meteohub,2013-05-25 20:22:00,
2013-05-25 15:27:00,61.5,39.4,30.35,ESE,120,5.0,13.0,44,0.00,,,0.00,meteohub,2013-05-25 20:27:00,
2013-05-25 15:32:00,61.9,40.8,30.35,ESE,106,9.0,13.0,46,0.00,,,0.00,meteohub,2013-05-25 20:32:00,
2013-05-25 15:37:00,61.9,40.8,30.35,SE,141,7.0,13.0,46,0.00,,,0.00,meteohub,2013-05-25 20:37:00,
2013-05-25 15:42:00,61.9,40.3,30.35,SE,140,6.0,12.0,45,0.00,,,0.00,meteohub,2013-05-25 20:42:00,
2013-05-25 15:47:00,61.9,40.3,30.35,SE,126,6.0,12.0,45,0.00,,,0.00,meteohub,2013-05-25 20:47:00,
2013-05-25 15:52:00,61.9,41.4,30.35,SE,145,5.0,10.0,47,0.00,,,0.00,meteohub,2013-05-25 20:52:00,
2013-05-25 15:57:00,61.5,40.5,30.34,ESE,123,7.0,10.0,46,0.00,,,0.00,meteohub,2013-05-25 20:57:00,
2013-05-25 16:02:00,61.7,39.0,30.34,ESE,123,5.0,10.0,43,0.00,,,0.00,meteohub,2013-05-25 21:02:00,
2013-05-25 16:07:00,61.5,41.2,30.34,SE,138,5.0,9.0,47,0.00,,,0.00,meteohub,2013-05-25 21:07:00,
2013-05-25 16:12:00,61.9,41.9,30.34,ESE,118,3.0,10.0,48,0.00,,,0.00,meteohub,2013-05-25 21:12:00,
2013-05-25 16:17:00,61.5,41.2,30.33,SE,133,6.0,10.0,47,0.00,,,0.00,meteohub,2013-05-25 21:17:00,
2013-05-25 16:22:00,61.9,41.4,30.33,SE,132,6.0,10.0,47,0.00,,,0.00,meteohub,2013-05-25 21:22:00,
2013-05-25 16:27:00,62.1,43.2,30.33,SE,130,5.0,10.0,50,0.00,,,0.00,meteohub,2013-05-25 21:27:00,
2013-05-25 16:32:00,62.1,40.5,30.33,SE,130,6.0,10.0,45,0.00,,,0.00,meteohub,2013-05-25 21:32:00,
2013-05-25 16:37:00,61.9,40.8,30.33,SE,125,6.0,10.0,46,0.00,,,0.00,meteohub,2013-05-25 21:37:00,
2013-05-25 16:42:00,61.5,41.2,30.34,SE,139,5.0,9.0,47,0.00,,,0.00,meteohub,2013-05-25 21:42:00,
2013-05-25 16:47:00,61.5,41.2,30.34,ESE,121,4.0,10.0,47,0.00,,,0.00,meteohub,2013-05-25 21:47:00,
2013-05-25 16:52:00,61.7,40.6,30.34,ESE,115,2.0,10.0,46,0.00,,,0.00,meteohub,2013-05-25 21:52:00,
2013-05-25 16:57:00,61.9,39.7,30.34,ESE,123,7.0,10.0,44,0.00,,,0.00,meteohub,2013-05-25 21:57:00,
2013-05-25 17:02:00,61.7,39.6,30.33,ESE,123,3.0,10.0,44,0.00,,,0.00,meteohub,2013-05-25 22:02:00,
2013-05-25 17:07:00,61.9,41.4,30.33,SE,125,6.0,10.0,47,0.00,,,0.00,meteohub,2013-05-25 22:07:00,
2013-05-25 17:12:00,61.5,39.4,30.33,SE,129,5.0,8.0,44,0.00,,,0.00,meteohub,2013-05-25 22:12:00,
2013-05-25 17:17:00,61.5,40.5,30.33,SE,129,4.0,7.0,46,0.00,,,0.00,meteohub,2013-05-25 22:17:00,
2013-05-25 17:22:00,61.3,41.0,30.33,SE,135,4.0,8.0,47,0.00,,,0.00,meteohub,2013-05-25 22:22:00,
2013-05-25 17:27:00,61.3,41.5,30.33,SE,135,5.0,8.0,48,0.00,,,0.00,meteohub,2013-05-25 22:27:00,
2013-05-25 17:32:00,61.5,42.3,30.33,SE,124,4.0,8.0,49,0.00,,,0.00,meteohub,2013-05-25 22:32:00,
2013-05-25 17:37:00,61.5,41.7,30.33,SE,135,5.0,8.0,48,0.00,,,0.00,meteohub,2013-05-25 22:37:00,
2013-05-25 17:42:00,61.3,39.7,30.33,SE,128,5.0,8.0,45,0.00,,,0.00,meteohub,2013-05-25 22:42:00,
2013-05-25 17:47:00,61.3,43.0,30.32,SE,128,6.0,9.0,51,0.00,,,0.00,meteohub,2013-05-25 22:47:00,
2013-05-25 17:52:00,61.2,41.9,30.32,ESE,121,3.0,9.0,49,0.00,,,0.00,meteohub,2013-05-25 22:52:00,
2013-05-25 17:57:00,61.2,41.9,30.32,SE,127,3.0,9.0,49,0.00,,,0.00,meteohub,2013-05-25 22:57:00,
2013-05-25 18:02:00,61.0,41.7,30.32,SE,134,5.0,8.0,49,0.00,,,0.00,meteohub,2013-05-25 23:02:00,
2013-05-25 18:07:00,61.2,42.4,30.31,SE,134,6.0,7.0,50,0.00,,,0.00,meteohub,2013-05-25 23:07:00,
2013-05-25 18:12:00,61.2,43.3,30.31,ESE,121,5.0,7.0,52,0.00,,,0.00,meteohub,2013-05-25 23:12:00,
2013-05-25 18:17:00,61.3,42.1,30.31,ESE,106,5.0,9.0,49,0.00,,,0.00,meteohub,2013-05-25 23:17:00,
2013-05-25 18:22:00,61.2,43.0,30.31,East,95,6.0,9.0,51,0.00,,,0.00,meteohub,2013-05-25 23:22:00,
2013-05-25 18:27:00,61.2,42.4,30.30,East,97,6.0,10.0,50,0.00,,,0.00,meteohub,2013-05-25 23:27:00,
2013-05-25 18:32:00,61.0,42.8,30.30,East,97,3.0,10.0,51,0.00,,,0.00,meteohub,2013-05-25 23:32:00,
2013-05-25 18:37:00,60.4,41.7,30.30,ESE,111,5.0,9.0,50,0.00,,,0.00,meteohub,2013-05-25 23:37:00,
2013-05-25 18:42:00,60.3,41.5,30.30,East,86,7.0,9.0,50,0.00,,,0.00,meteohub,2013-05-25 23:42:00,
2013-05-25 18:47:00,59.7,41.5,30.30,East,97,7.0,9.0,51,0.00,,,0.00,meteohub,2013-05-25 23:47:00,
2013-05-25 18:52:00,59.7,41.0,30.30,East,84,7.0,9.0,50,0.00,,,0.00,meteohub,2013-05-25 23:52:00,
2013-05-25 18:57:00,59.5,41.4,30.30,East,84,5.0,9.0,51,0.00,,,0.00,meteohub,2013-05-25 23:57:00,
2013-05-25 19:02:00,59.7,41.5,30.31,East,91,9.0,9.0,51,0.00,,,0.00,meteohub,2013-05-26 00:02:00,
2013-05-25 19:07:00,59.7,40.5,30.31,ENE,78,5.0,10.0,49,0.00,,,0.00,meteohub,2013-05-26 00:07:00,
2013-05-25 19:12:00,59.5,38.7,30.31,East,82,6.0,10.0,46,0.00,,,0.00,meteohub,2013-05-26 00:12:00,
2013-05-25 19:17:00,59.5,39.9,30.31,ENE,74,5.0,10.0,48,0.00,,,0.00,meteohub,2013-05-26 00:17:00,
2013-05-25 19:22:00,59.4,39.2,30.31,ENE,77,5.0,10.0,47,0.00,,,0.00,meteohub,2013-05-26 00:22:00,
2013-05-25 19:27:00,59.2,40.1,30.31,ENE,74,5.0,9.0,49,0.00,,,0.00,meteohub,2013-05-26 00:27:00,
2013-05-25 19:32:00,58.8,39.7,30.31,ENE,75,3.0,9.0,49,0.00,,,0.00,meteohub,2013-05-26 00:32:00,
2013-05-25 19:37:00,58.5,40.8,30.32,ENE,75,2.0,9.0,52,0.00,,,0.00,meteohub,2013-05-26 00:37:00,
2013-05-25 19:42:00,57.9,39.9,30.31,ENE,75,3.0,8.0,51,0.00,,,0.00,meteohub,2013-05-26 00:42:00,
2013-05-25 19:47:00,57.6,38.5,30.32,ENE,74,4.0,8.0,49,0.00,,,0.00,meteohub,2013-05-26 00:47:00,
2013-05-25 19:52:00,57.2,38.3,30.32,ENE,74,4.0,7.0,49,0.00,,,0.00,meteohub,2013-05-26 00:52:00,
2013-05-25 19:57:00,56.8,38.8,30.32,ENE,74,2.0,7.0,51,0.00,,,0.00,meteohub,2013-05-26 00:57:00,
2013-05-25 20:02:00,56.3,38.5,30.32,ENE,74,4.0,7.0,51,0.00,,,0.00,meteohub,2013-05-26 01:02:00,
2013-05-25 20:07:00,55.8,38.5,30.32,ENE,74,2.0,7.0,52,0.00,,,0.00,meteohub,2013-05-26 01:07:00,
2013-05-25 20:12:00,55.6,38.7,30.32,ENE,74,2.0,7.0,53,0.00,,,0.00,meteohub,2013-05-26 01:12:00,
2013-05-25 20:17:00,55.0,38.7,30.32,ENE,74,2.0,5.0,54,0.00,,,0.00,meteohub,2013-05-26 01:17:00,
2013-05-25 20:22:00,54.9,39.0,30.32,ENE,74,2.0,5.0,55,0.00,,,0.00,meteohub,2013-05-26 01:22:00,
2013-05-25 20:27:00,54.0,38.1,30.31,ENE,74,2.0,5.0,55,0.00,,,0.00,meteohub,2013-05-26 01:27:00,
2013-05-25 20:32:00,53.6,37.8,30.31,ENE,74,2.0,3.0,55,0.00,,,0.00,meteohub,2013-05-26 01:32:00,
2013-05-25 20:37:00,53.2,38.5,30.31,ENE,74,0.0,3.0,57,0.00,,,0.00,meteohub,2013-05-26 01:37:00,
2013-05-25 20:42:00,52.9,38.1,30.32,ENE,74,0.0,3.0,57,0.00,,,0.00,meteohub,2013-05-26 01:42:00,
2013-05-25 20:47:00,52.3,37.9,30.32,ENE,74,0.0,3.0,58,0.00,,,0.00,meteohub,2013-05-26 01:47:00,
2013-05-25 20:52:00,52.2,38.3,30.32,ENE,74,0.0,1.0,59,0.00,,,0.00,meteohub,2013-05-26 01:52:00,
2013-05-25 20:57:00,52.0,39.0,30.32,ENE,74,0.0,1.0,61,0.00,,,0.00,meteohub,2013-05-26 01:57:00,
2013-05-25 21:02:00,51.4,37.6,30.32,ENE,74,0.0,1.0,59,0.00,,,0.00,meteohub,2013-05-26 02:02:00,
2013-05-25 21:07:00,51.3,37.8,30.32,ENE,74,1.0,1.0,60,0.00,,,0.00,meteohub,2013-05-26 02:07:00,
2013-05-25 21:12:00,50.9,38.3,30.32,ENE,74,0.0,2.0,62,0.00,,,0.00,meteohub,2013-05-26 02:12:00,
2013-05-25 21:17:00,50.5,39.2,30.32,ENE,74,0.0,2.0,65,0.00,,,0.00,meteohub,2013-05-26 02:17:00,
2013-05-25 21:22:00,50.4,38.7,30.32,ENE,74,0.0,2.0,64,0.00,,,0.00,meteohub,2013-05-26 02:22:00,
2013-05-25 21:27:00,50.2,38.8,30.33,ENE,74,0.0,1.0,65,0.00,,,0.00,meteohub,2013-05-26 02:27:00,
2013-05-25 21:32:00,50.0,39.0,30.32,ENE,74,1.0,2.0,66,0.00,,,0.00,meteohub,2013-05-26 02:32:00,
2013-05-25 21:37:00,49.6,39.6,30.33,ENE,74,0.0,2.0,68,0.00,,,0.00,meteohub,2013-05-26 02:37:00,
2013-05-25 21:42:00,49.1,39.4,30.33,ENE,74,1.0,2.0,69,0.00,,,0.00,meteohub,2013-05-26 02:42:00,
2013-05-25 21:47:00,48.6,39.6,30.33,ENE,74,1.0,2.0,71,0.00,,,0.00,meteohub,2013-05-26 02:47:00,
2013-05-25 21:52:00,48.0,39.4,30.33,ENE,74,2.0,2.0,72,0.00,,,0.00,meteohub,2013-05-26 02:52:00,
2013-05-25 21:57:00,47.8,39.2,30.33,ENE,74,1.0,3.0,72,0.00,,,0.00,meteohub,2013-05-26 02:57:00,
2013-05-25 22:02:00,47.7,39.4,30.33,ENE,74,1.0,3.0,73,0.00,,,0.00,meteohub,2013-05-26 03:02:00,
2013-05-25 22:07:00,47.5,39.6,30.33,ENE,74,1.0,3.0,74,0.00,,,0.00,meteohub,2013-05-26 03:07:00,
2013-05-25 22:12:00,47.1,39.2,30.33,ENE,74,0.0,2.0,74,0.00,,,0.00,meteohub,2013-05-26 03:12:00,
2013-05-25 22:17:00,47.1,38.8,30.33,ENE,74,0.0,2.0,73,0.00,,,0.00,meteohub,2013-05-26 03:17:00,
2013-05-25 22:22:00,47.1,38.8,30.33,ENE,74,0.0,2.0,73,0.00,,,0.00,meteohub,2013-05-26 03:22:00,
2013-05-25 22:27:00,47.1,38.5,30.33,ENE,74,0.0,2.0,72,0.00,,,0.00,meteohub,2013-05-26 03:27:00,
2013-05-25 22:32:00,46.8,38.8,30.33,ENE,74,1.0,1.0,74,0.00,,,0.00,meteohub,2013-05-26 03:32:00,
2013-05-25 22:37:00,46.8,39.2,30.33,ENE,74,0.0,2.0,75,0.00,,,0.00,meteohub,2013-05-26 03:37:00,
2013-05-25 22:42:00,46.6,39.0,30.33,ENE,74,0.0,2.0,75,0.00,,,0.00,meteohub,2013-05-26 03:42:00,
2013-05-25 22:47:00,47.1,38.5,30.33,ENE,74,0.0,2.0,72,0.00,,,0.00,meteohub,2013-05-26 03:47:00,
2013-05-25 22:52:00,47.3,38.3,30.33,ENE,74,0.0,1.0,71,0.00,,,0.00,meteohub,2013-05-26 03:52:00,
2013-05-25 22:57:00,47.5,38.5,30.33,ENE,74,0.0,1.0,71,0.00,,,0.00,meteohub,2013-05-26 03:57:00,
2013-05-25 23:01:00,47.3,38.3,30.33,ENE,74,0.0,0.0,71,0.00,,,0.00,meteohub,2013-05-26 04:01:00,
2013-05-25 23:02:00,47.3,38.3,30.33,ENE,74,0.0,0.0,71,0.00,,,0.00,meteohub,2013-05-26 04:02:00,
2013-05-25 23:04:00,47.3,38.3,30.33,ENE,74,0.0,0.0,71,0.00,,,0.00,meteohub,2013-05-26 04:04:00,
2013-05-25 23:09:00,47.1,38.1,30.33,ENE,74,0.0,0.0,71,0.00,,,0.00,meteohub,2013-05-26 04:09:00,
2013-05-25 23:15:00,47.1,37.8,30.33,ENE,74,0.0,1.0,70,0.00,,,0.00,meteohub,2013-05-26 04:15:00,
2013-05-25 23:20:00,46.6,37.8,30.33,ENE,74,0.0,1.0,71,0.00,,,0.00,meteohub,2013-05-26 04:20:00,
2013-05-25 23:25:00,46.2,38.1,30.32,ENE,74,0.0,1.0,73,0.00,,,0.00,meteohub,2013-05-26 04:25:00,
2013-05-25 23:30:00,46.2,38.1,30.33,ENE,74,0.0,1.0,73,0.00,,,0.00,meteohub,2013-05-26 04:30:00,
2013-05-25 23:35:00,46.0,37.9,30.32,ENE,74,0.0,0.0,73,0.00,,,0.00,meteohub,2013-05-26 04:35:00,
2013-05-25 23:40:00,46.0,37.9,30.32,ENE,74,0.0,0.0,73,0.00,,,0.00,meteohub,2013-05-26 04:40:00,
2013-05-25 23:46:00,45.9,38.1,30.32,ENE,74,0.0,0.0,74,0.00,,,0.00,meteohub,2013-05-26 04:46:00,
2013-05-25 23:51:00,45.9,37.8,30.32,ENE,74,0.0,0.0,73,0.00,,,0.00,meteohub,2013-05-26 04:51:00,
2013-05-25 23:56:00,45.9,37.8,30.32,ENE,74,0.0,0.0,73,0.00,,,0.00,meteohub,2013-05-26 04:56:00,